sat.trackr.live / text

‹ back to catalog

STARLINK-4593

NORAD 53633 · 2022-104AX

PAYLOAD ACTIVE UNKNOWN

§ Identity

Operator
Country
US
Launch date
2022-08-28
Launch site
AFETR
Launch vehicle
Mass (kg)
RCS (m²)

Purposes: comms

External: N2YO · Heavens-Above · Gunter

§ Orbital elements

Epoch: 2026-09-20T14:03:41.947488Z

Period
93.85 min
Inclination
53.1583°
Eccentricity
0.0001213
Mean motion
15.34395633 rev/d
Perigee alt
461.9 km
Apogee alt
463.5 km
Semi-major
6,840.9 km
B*
2.3610e-5
RAAN
61.1264°
Arg perigee
60.4865°
Mean anomaly
299.6259°
Rev number
22,542

§ Raw data

STARLINK-45931 53633U 22104AX  26263.58590217  .00000421  00000+0  23610-4 0  99972 53633  53.1583  61.1264 0001213  60.4865 299.6259 15.34395633225422

JSON: /api/v1/satellites/53633 · /tle

For live sub-satellite position, see the globe view (requires WebGL).

§ Visibility from observer

Set your observer location to see the next 7 days of passes ≥ 10°. The values pass through the URL so the page stays shareable.

No JS? Fill the form by hand. The geolocation button needs JavaScript.